www.pogodaiklimat.ru

Погода и климат >> Архив погоды >> Ирак >> Al-Nukhib


ПОГОДА в Al-Nukhib

  • Прогноз погоды в Al-Nukhib
  • Монитор погоды в Al-Nukhib
  • Климат города

АРХИВ ПОГОДЫ в Al-Nukhib

Время (UTC), дата Ветер
(напр.,м/с)
 
Видим.   Явления Облачность Т
(С)
Тd
(С)
f
(%)
Тe
(С)
Тes
(С)
Комфортность P
(гПа)
Po
(гПа)
Тmin
(С)
Tmax
(С)
R
(мм)
R24
(мм)
S
(см)
09 13.06 ЮВ 4 10 км ясно +37.5 +11.8 21 +37 +51 опасность
солнечного
удара
1000.1 1000.0
12 13.06 Ю 3 10 км ясно +40.3 +12.0 19 +40 +51 опасность
солнечного
удара
998.6 999.0
15 13.06 СЗ 2 10 км 3/0
[Ac trans]
+38.0 +12.2 21 +37 +39 очень
жарко
998.3 998.0
18 13.06 З 3 10 км 4/0
[Ac trans]
+34.2 +10.6 24 +34 +34 очень
жарко
999.0 999.0 +40.7
03 14.06 СЗ 2 10 км ясно +26.5 +11.0 38 +27 +28 жарко 1000.6 1001.0
06 14.06 СЗ 4 10 км ясно +31.0 +12.4 32 +32 +40 жарко 1001.4 1001.0 +26.2
09 14.06 Ю 5 10 км ясно +36.0 +9.8 20 +35 +46 очень
жарко
1000.5 1001.0
12 14.06 З 4 10 км ясно +38.3 +9.9 18 +37 +46 очень
жарко
999.4 999.0
15 14.06 СЗ 4 10 км ясно +36.4 +10.7 21 +35 +36 очень
жарко
999.2 999.0
18 14.06 штиль 0 10 км ясно +33.2 +10.4 25 +33 +33 жарко 999.8 1000.0 +38.8
03 15.06 СЗ 2 10 км ясно +25.3 +10.4 39 +26 +27 жарко 1004.5 1005.0
09 15.06 СЗ 3 10 км ясно +31.0 +12.4 32 +32 +50 жарко 1004.9 1005.0 +25.0
12 15.06 З 5 10 км ясно +38.3 +11.1 20 +37 +45 очень
жарко
1002.7 1003.0
15 15.06 СЗ 2 10 км ясно +37.0 +12.2 23 +37 +38 очень
жарко
1002.4 1002.0
06 16.06 СЗ 3 10 км ясно +31.5 +12.0 30 +32 +42 жарко 1007.0 1007.0 +25.2
09 16.06 СЗ 2 10 км ясно +37.0 +13.7 25 +37 +59 опасность
солнечного
удара
1006.0 1006.0
12 16.06 З 4 10 км ясно +38.3 +11.1 20 +37 +47 очень
жарко
1005.1 1005.0
15 16.06 Ю 3 10 км ясно +37.0 +12.2 23 +37 +38 очень
жарко
1005.0 1005.0
18 16.06 З 2 10 км ясно +35.3 +12.0 24 +35 +35 очень
жарко
1005.8 1006.0 +38.7
03 17.06 СЗ 2 10 км ясно +26.2 +11.5 40 +27 +28 жарко 1007.2 1007.0
06 17.06 СЗ 3 10 км ясно +30.4 +11.0 30 +31 +41 жарко 1007.6 1008.0 +25.8
09 17.06 СЗ 3 10 км ясно +38.0 +13.2 23 +38 +56 опасность
солнечного
удара
1006.3 1006.0
12 17.06 Ю 4 10 км ясно +41.2 +11.2 17 +40 +49 очень
жарко
1004.9 1005.0
15 17.06 СЗ 4 10 км 3/3 900 м
[Cu hum]
+40.2 +11.6 18 +39 +40 очень
жарко
1004.4 1004.0
18 17.06 СЗ 2 10 км ясно +36.4 +10.4 21 +35 +35 очень
жарко
1005.0 1005.0 +41.2
06 18.06 СЗ 6 10 км ясно +31.0 +12.4 32 +32 +36 жарко 1005.5 1006.0 +26.0
09 18.06 СЗ 5 10 км 4/0
[Ci fib]
+36.4 +11.5 22 +36 +46 очень
жарко
1004.0 1004.0
12 18.06 С 6 10 км 5/0
[Ci fib]
+39.5 +8.1 15 +37 +42 очень
жарко
1002.0 1002.0
15 18.06 С 4 10 км 4/0
[Ci fib]
+38.2 +9.8 18 +37 +38 очень
жарко
1001.7 1002.0
18 18.06 С 3 10 км ясно +32.8 +8.3 22 +31 +31 жарко 1003.0 1003.0 +40.0
03 19.06 З 3 10 км ясно +25.4 +8.0 33 +26 +26 жарко 1005.8 1006.0
06 19.06 С 5 10 км ясно +31.4 +9.5 26 +31 +37 жарко 1006.7 1007.0 +25.0
09 19.06 С 5 10 км ясно +35.8 +10.9 22 +35 +46 очень
жарко
1005.8 1006.0
12 19.06 С 2 10 км ясно +39.5 +13.2 21 +39 +53 опасность
солнечного
удара
1004.2 1004.0
15 19.06 З 3 10 км ясно +39.6 +13.1 21 +40 +41 очень
душно
1003.4 1003.0
18 19.06 З 2 10 км ясно +36.0 +14.0 27 +37 +37 душно 1004.4 1004.0 +40.5
03 20.06 З 5 10 км ясно +27.0 +9.0 32 +27 +28 жарко 1007.8 1008.0
06 20.06 З 7 10 км ясно +33.0 +13.1 30 +34 +37 очень
жарко
1008.2 1008.0 +26.6

 

Местоположение метеостанции Al-Nukhib (Ирак): широта 32.03 долгота 42.25 высота над уровнем моря 305 м.

В архиве по умолчанию представлена погода в Al-Nukhib за последнюю неделю. Архивные данные за месяц целиком и за предыдущие месяцы, начиная с января 2011 года, Вы можете получить, выбрав интересующий диапазон дат из раскрывающегося списка и нажав кнопку "Ввод!".


*Определитесь, кто Вы:
робот инопланетянин человек

Внимание! Время в таблицах - всемирное. Для получения местного времени необходимо прибавить поправку, которая в Al-Nukhib равна 3 ч.

Смотрите также архив погоды в соседних городах и на ближайших метеорологических станциях:

Погода в Arar (Саудовская Аравия) (165 км)
Погода в Karbalaa (Ирак) (179 км)
Погода в Ramadi (Ирак) (187 км)
Погода в Najaf (Ирак) (195 км)
Погода в Hella (Ирак) (212 км)
Погода в Rutbah (Ирак) (216 км)
Погода в Heet (Ирак) (227 км)
Погода в Haditha (Ирак) (227 км)
Погода в Baghdad (Ирак) (228 км)
Погода в Diwaniya (Ирак) (258 км)

Пояснения к столбцам:

Ветер - указаны скорость ветра в м/с - средняя за 10 мин, порывы в срок и между сроками (в фигурных скобках) и направление, откуда дует ветер: С - северный, СВ - северо-восточный, В - восточный, ЮВ - юго-восточный, Ю - южный, ЮЗ - юго-западный, З - западный, СЗ - северо-западный.
Видимость - горизонтальная дальность видимости в метрах или километрах. При видимости от 1 до 10 км при отсутствии осадков обычно наблюдается дымка, при ухудшении видимости до 1 км и менее - туман. В сухую погоду видимость может ухудшаться дымом, пылью или мглою.
Явления - указаны атмосферные явления, наблюдавшиеся в срок или в последний час перед сроком; фигурными скобками обозначены явления, наблюдавшиеся между сроками (за 1-3 часа до срока); квадратными скобками обозначены град или гололедные отложения с указанием их диаметра в мм.
Облачность - указаны через наклонную черту общая и нижняя облачность в баллах и высота нижней границы облаков в метрах; квадратными скобками обозначены формы облаков: Ci - перистые, Cs - перисто-слоистые, Cc - перисто-кучевые, Ac - высококучевые, As - высокослоистые, Sc - слоисто-кучевые, Ns - слоисто-дождевые, Cu - кучевые, Cb - кучево-дождевые. Подробнее классификацию облаков см. в Атласе облаков (PDF).
T - Температура воздуха - температура, измеренная на высоте 2 м над землей.
Td - Температура точки росы - температура, при понижении до которой содержащийся в воздухе водяной пар достигнет насыщения.
f - Относительная влажность воздуха - влажноcть воздуха, измеренная на высоте 2 м над землей.
Te - Эффективная температура - температура, которую ощущает одетый по сезону человек в тени. Характеристика душности погоды. При расчете учитывается влияние влажности воздуха и скорости ветра на теплоощущения человека.
Tes - Эффективная температура на солнце - температура, которую ощущает человек, с поправкой на солнечный нагрев. Характеристика знойности погоды. Зависит от высоты солнца над горизонтом, облачности и скорости ветра. Ночью, в пасмурную погоду, а также при ветре 12 м/с и более поправка равна нулю.
P - Атмосферное давление - приведенное к уровню моря атмосферное давление.
Po - Атмосферное давление - измеренное на уровне метеостанции атмосферное давление.
Tmin - Минимальная температура - минимум температуры воздуха на высоте 2 м над землей.
Tmax - Максимальная температура - максимум температуры воздуха на высоте 2 м над землей.
R - Количество осадков - Количество выпавших осадков за период времени, мм. При наведении курсора мыши на число - период времени, за который выпало указанное количество осадков.
R24 - Количество осадков - Количество выпавших осадков за 24 часа, мм.
S - Снежный покров - Высота снежного покрова, см. При наведении курсора мыши на число - состояние снежного покрова и степень покрытия местности в баллах.